Location: Unspecified
(47.4992°N, 121.7766°W)
Time: 11:11:38
(UTC-07:00)

Okean 3 - Pass Details

Date: 04 August 2024
Orbit: 557 x 580 km, 82.5° (Epoch: 12 September)

Event Time Altitude Azimuth Distance (km) Brightness Sun altitude
Rises 04:14:25 0° 341° (NNW) 2,763 7.3 -13.8°
Reaches altitude 10° 04:16:48 10° 330° (NNW) 1,858 6.2 -13.5°
Maximum altitude 04:20:20 29° 270° (W) 1,051 4.4 -13.1°
Enters shadow 04:22:06 21° 229° (SW) 1,298 4.6 -12.9°
